Terminal Aerodrome Forecast
Issued by NWS

Home | Current Version | Previous Version | Graphics & Text | Print | Product List | Glossary On
Versions: 1 2 3 4 5 6 7 8 9 10 11 12 13 14 15 16 17 18 19 20 21 22 23 24 25 26 27 28 29 30 31 32 33 34 35 36 37 38 39 40 41 42 43 44 45 46 47 48 49 50
000
FTUS43 KLOT 182100 AAC
TAFGYY
TAF AMD
KGYY 182136Z 1822/1918 20006KT 5SM HZ SCT035
     FM190000 19005KT 6SM BR SCT040
     FM190300 15005KT 6SM BR BKN040 BKN100
     FM190600 19006KT 5SM -TSRA BR BKN035CB
     FM191000 20007KT 5SM BR BKN035
     FM191500 22012G18KT P6SM VCSH BKN035 PROB30 1916/1918 -TSRA
      BKN035CB=

USA.gov is the U.S. government's official web portal to all federal, state and local government web resources and services.